Theta_e
319 313 311 310 300 298 294 298 303 304 305 311 314 315 316 316 314 307 332 337 339 341 342 342 345 346 345 347 348 347 347 347 346 344 344 342 340 340 338 339 339 337 337 336 336 336 335 333 334
317 315 312 305 295 292 294 299 304 306 310 314 315 316 315 314 322 323 332 340 341 340 340 340 343 345 345 346 347 347 346 347 345 345 344 341 339 338 337 336 336 336 336 335 336 335 334 333 332
315 313 304 302 297 293 294 303 306 309 313 313 311 318 316 317 322 323 336 339 340 338 338 340 343 345 345 345 346 346 346 346 345 343 341 341 339 338 337 337 335 336 335 334 334 333 331 331 332
310 308 304 296 296 298 298 306 308 306 310 314 314 312 320 325 324 331 338 339 337 337 338 340 344 345 345 344 345 345 345 345 344 341 340 339 337 336 335 336 335 335 334 334 333 332 330 330 331
308 305 298 298 297 298 298 305 308 306 307 309 312 312 316 323 329 336 337 338 335 335 337 340 343 344 345 345 345 345 346 345 343 339 338 337 335 335 335 335 334 334 334 333 333 331 330 329 329
304 304 295 293 297 298 300 304 306 307 309 309 312 314 313 325 329 333 337 335 335 333 337 339 336 339 342 343 344 343 344 343 341 338 337 336 334 334 334 334 334 334 333 332 332 331 330 328 328
303 302 297 294 296 296 302 307 303 306 308 308 312 312 316 323 330 333 336 335 334 333 334 335 336 335 335 337 338 341 342 341 340 339 338 337 336 335 334 335 334 333 332 331 331 330 329 328 328
303 302 299 296 296 297 304 304 305 307 307 313 314 311 313 321 330 333 335 335 334 332 332 332 333 335 334 333 331 334 337 337 337 335 333 331 332 332 332 330 333 332 331 329 329 328 328 327 327
308 296 296 299 299 299 304 301 305 307 310 312 315 316 320 327 330 331 330 332 332 332 329 330 330 332 332 330 327 329 331 331 330 329 327 325 326 327 328 327 330 331 330 329 328 326 326 326 325
307 296 299 302 298 300 305 303 304 304 306 308 317 322 325 326 326 326 327 326 329 330 328 329 327 329 331 332 327 327 328 327 326 325 325 326 324 324 326 324 327 329 328 329 327 327 327 323 320
302 299 305 301 301 302 302 300 304 303 301 308 313 319 322 322 324 325 326 327 326 326 331 330 329 328 327 328 326 326 326 326 325 325 325 321 320 319 320 319 320 319 320 319 322 321 321 320 320
299 304 304 304 303 302 300 302 299 301 302 306 320 323 322 323 324 325 325 323 324 325 328 330 330 327 326 327 323 323 324 325 324 325 324 320 318 317 317 316 316 317 318 319 320 320 321 321 321
301 303 307 302 301 300 302 299 299 298 301 311 323 322 320 320 323 326 326 324 324 322 326 328 330 326 325 324 323 321 320 323 324 325 324 323 321 320 320 320 321 321 321 321 320 320 321 321 321
305 305 304 301 300 300 300 299 300 300 302 316 320 318 318 320 322 324 324 322 323 324 325 327 329 331 324 323 322 321 320 321 322 322 322 323 321 320 321 321 321 321 321 321 322 321 319 319 322
306 299 303 300 300 300 301 299 298 303 304 312 314 316 317 319 321 322 325 323 323 324 326 326 327 329 325 322 322 321 321 321 320 321 323 323 323 320 321 321 321 323 322 322 322 321 319 317 319
298 298 294 300 300 301 301 295 302 304 302 302 309 313 316 318 320 322 324 326 326 324 325 326 329 327 328 323 321 320 320 320 320 322 323 323 323 322 320 321 321 325 323 322 320 319 317 317 317
298 292 295 299 302 300 298 295 303 304 301 300 301 308 315 317 319 321 325 323 324 324 325 325 326 325 327 325 321 321 320 320 321 323 323 323 323 323 321 321 322 325 321 319 319 316 317 317 317
291 295 297 297 300 298 295 295 301 300 299 299 299 302 315 317 319 322 325 325 326 325 325 325 326 325 325 325 321 320 319 319 321 322 323 323 324 323 321 320 322 322 319 318 317 316 319 318 317
298 296 295 297 301 298 298 296 298 302 299 297 299 299 308 315 320 322 324 324 323 324 323 325 324 325 325 324 320 319 319 319 319 321 324 324 324 323 321 320 320 318 318 318 318 318 319 318 316
300 296 297 300 299 299 295 295 299 301 302 299 299 299 300 310 312 319 320 322 322 323 323 323 324 324 325 326 325 321 319 320 322 323 325 325 324 323 321 320 319 319 317 317 317 318 317 317 315
297 297 298 299 295 297 293 292 296 301 302 303 302 300 301 302 312 315 318 321 322 320 319 319 323 324 325 325 324 320 320 320 320 322 324 325 325 323 322 321 320 320 320 318 318 318 317 314 313
293 301 299 296 295 290 294 284 292 298 300 302 301 299 299 301 307 314 317 319 321 322 322 318 319 322 323 325 323 323 321 319 322 323 326 325 324 323 323 323 323 322 322 320 320 322 320 317 312
295 301 297 296 292 289 290 287 290 295 295 299 304 301 300 300 302 307 316 319 321 323 324 324 318 318 321 322 323 322 321 322 323 324 324 325 325 324 323 323 322 322 321 322 319 318 319 318 313
299 296 295 294 293 287 290 290 288 293 297 298 301 305 304 300 299 303 312 318 319 322 324 323 323 318 319 319 321 321 320 321 322 322 323 324 324 324 323 322 322 322 321 320 320 320 318 315 312
298 295 285 284 284 282 289 288 293 296 298 299 300 300 303 301 299 301 303 309 314 318 322 323 324 323 320 318 320 320 321 322 323 323 324 323 323 319 322 321 321 320 319 316 315 314 314 311 308
295 294 282 277 279 280 283 283 289 300 303 301 302 302 298 297 300 299 301 307 312 317 320 321 322 324 324 322 319 320 322 325 324 324 325 324 324 323 323 321 322 319 317 315 313 307 305 302 301
293 291 291 282 274 278 282 286 293 295 297 295 295 294 296 296 295 299 299 302 309 312 316 320 322 324 324 325 325 322 322 323 325 325 325 324 323 322 315 318 320 317 314 312 308 306 300 297 294
296 297 288 284 275 275 280 282 285 290 293 295 295 295 293 294 294 295 295 296 299 307 311 315 319 321 322 324 326 325 325 325 325 325 324 324 323 319 316 315 316 314 311 308 305 300 296 295 293
292 292 290 290 284 279 276 281 290 292 296 294 292 293 293 294 294 295 295 296 296 296 297 301 309 313 315 317 322 323 323 324 325 325 324 325 322 317 316 314 311 309 307 304 301 297 294 294 292
296 293 294 287 283 284 282 282 290 291 292 291 292 293 294 295 295 296 296 296 296 297 297 297 297 299 304 308 311 313 316 315 320 323 325 320 317 313 313 310 308 307 304 301 300 296 296 295 291
Wind_Speed
7 9 2 5 6 6 3 1 5 6 5 2 1 6 9 4 4 5 5 14 13 11 8 9 12 12 12 11 11 12 13 15 15 17 18 20 18 17 17 18 17 18 19 18 19 18 17 16 16
5 6 5 2 5 3 4 3 7 3 5 5 7 6 6 4 3 6 9 13 14 11 8 7 11 11 10 11 10 14 14 14 14 18 19 19 17 16 16 17 17 19 19 18 18 17 16 16 14
5 1 4 3 2 1 2 3 7 3 6 3 4 7 4 3 1 4 14 13 14 10 9 8 11 12 12 12 13 14 14 13 15 18 17 17 18 16 16 15 16 17 17 18 17 16 16 14 14
3 5 4 4 3 5 6 6 8 3 6 5 6 7 5 2 4 5 13 14 14 11 10 8 10 12 12 12 12 13 12 15 17 17 17 15 16 16 15 14 15 17 16 16 16 16 15 13 13
3 3 3 0 5 3 4 9 6 5 6 2 5 5 4 3 4 10 13 13 13 9 8 6 9 10 11 13 11 12 14 17 18 17 14 14 16 15 14 13 15 15 15 14 14 14 13 12 11
3 2 3 3 5 2 3 4 6 6 5 4 6 6 3 4 5 9 10 12 12 11 8 6 6 8 10 11 13 14 15 18 18 16 14 14 14 14 13 13 14 14 13 13 13 12 12 10 9
3 2 3 2 4 3 4 5 2 6 7 3 7 5 2 5 6 7 14 11 12 11 10 5 5 7 8 11 12 14 15 16 18 15 14 13 13 13 12 11 12 12 11 11 11 11 9 8 8
2 3 1 4 3 2 2 3 3 5 1 1 3 6 6 6 7 12 11 12 11 9 10 7 6 6 5 5 9 12 15 15 15 14 13 12 12 11 10 8 9 10 9 8 8 7 6 5 5
4 3 3 5 1 3 3 4 3 2 6 5 4 3 5 11 11 10 8 7 9 7 7 10 6 6 6 6 5 8 12 13 13 12 12 9 5 6 6 7 8 9 8 7 5 4 3 3 5
3 3 6 1 3 5 4 4 5 4 4 4 5 6 10 8 10 12 9 8 9 7 7 8 10 7 6 5 5 5 5 4 6 6 7 4 5 5 5 6 8 7 6 5 4 3 1 1 2
4 6 2 4 5 6 2 3 6 6 4 7 9 11 11 6 9 10 8 10 6 6 8 6 9 12 8 5 3 3 3 2 3 6 5 5 5 4 3 3 2 3 4 2 0 0 1 2 2
3 6 3 3 1 4 5 4 3 4 5 5 16 18 15 14 12 12 10 8 8 5 7 7 7 11 9 6 4 3 4 4 3 4 6 5 3 4 4 3 4 3 3 3 3 2 1 1 2
4 4 3 4 5 5 5 2 3 4 5 6 18 16 15 12 14 10 9 8 7 7 7 7 6 7 9 7 5 5 4 3 5 5 6 5 4 5 4 4 3 3 3 2 2 1 0 0 1
4 6 2 4 5 2 3 2 4 3 7 11 17 12 12 14 13 11 12 13 13 10 8 7 7 6 7 7 6 5 5 4 3 4 5 6 5 5 4 4 4 3 2 3 3 3 1 1 2
3 2 4 4 3 1 3 6 6 7 7 12 12 12 10 11 11 16 15 17 16 13 11 9 8 6 7 8 6 5 6 6 5 4 4 5 5 5 5 4 4 4 3 4 2 0 0 1 0
3 0 4 4 5 4 7 6 5 9 9 11 11 11 13 15 14 12 12 13 16 14 14 11 8 7 6 8 6 5 5 4 5 5 5 6 6 6 5 4 4 4 4 3 1 1 0 2 3
2 3 5 3 10 5 6 4 7 6 9 9 9 10 13 12 12 12 13 8 16 17 15 14 11 10 8 8 6 6 7 5 5 5 6 7 6 6 5 4 4 5 4 3 3 2 2 1 2
3 3 3 7 7 6 5 7 8 2 6 10 9 9 14 15 19 15 16 11 14 16 16 15 13 11 8 5 5 4 4 5 4 5 4 7 5 7 5 4 5 5 4 3 2 3 3 2 3
8 6 10 7 7 6 16 6 12 11 6 7 8 8 12 15 16 15 14 12 9 14 15 16 15 15 9 6 5 6 7 6 4 5 8 9 8 7 7 5 5 5 5 6 5 4 5 3 3
6 8 10 3 3 6 5 10 9 10 9 10 12 11 10 10 8 15 14 14 12 15 16 15 17 15 14 9 6 4 4 4 6 4 7 8 9 9 7 6 5 5 3 5 5 4 2 2 3
10 7 8 5 2 3 2 7 7 10 8 9 13 9 9 13 15 14 15 17 13 13 16 16 17 16 15 15 6 3 3 2 4 5 6 8 11 9 8 8 7 7 5 5 5 6 7 3 1
15 6 3 7 8 5 5 7 5 6 10 11 10 9 11 10 10 15 17 15 16 15 14 15 15 16 15 15 12 16 12 12 10 10 7 8 10 10 10 10 9 9 6 6 7 6 4 4 5
6 8 5 3 4 1 4 1 7 6 6 10 15 12 13 13 12 12 16 20 18 16 14 14 15 16 16 16 15 12 13 10 8 8 9 10 8 10 10 10 10 9 7 8 7 5 6 4 4
8 7 6 4 2 7 8 6 6 6 10 7 7 14 15 12 12 11 14 15 14 14 13 11 13 15 15 16 17 16 16 12 8 9 9 8 8 8 10 10 10 10 9 9 8 8 7 5 3
9 13 2 4 4 10 6 8 13 7 9 7 6 7 10 9 9 13 11 10 10 13 15 13 13 15 14 16 17 17 16 15 13 13 11 10 8 6 11 12 10 9 9 7 6 6 8 9 8
22 15 7 8 7 5 1 10 8 18 18 8 9 8 4 8 7 9 11 10 12 14 14 13 12 14 11 14 16 16 15 11 12 12 10 9 10 10 10 11 10 10 9 8 7 4 4 3 4
9 15 7 6 2 3 6 6 10 6 9 6 8 5 7 6 3 1 7 8 8 9 13 15 15 16 14 17 15 15 15 16 13 15 12 11 12 10 10 12 13 10 9 9 10 8 7 6 5
12 12 7 1 6 5 5 5 7 7 11 8 7 8 2 2 5 4 3 3 3 6 6 7 10 14 13 13 13 13 15 16 16 11 15 15 14 13 12 13 12 10 9 9 10 6 7 7 5
8 13 5 6 5 6 3 8 8 11 16 9 5 7 8 7 5 3 1 2 2 1 1 4 6 7 8 9 11 11 11 12 13 15 14 15 12 12 13 13 13 12 12 11 10 9 7 10 11
7 10 11 8 9 4 3 7 3 7 8 10 8 7 7 8 7 4 1 2 2 3 4 5 4 4 5 4 5 7 7 6 10 13 13 8 10 9 11 10 10 10 10 11 12 12 10 11 13
Wind_Direction
332 313 332 35 40 59 313 340 133 93 54 46 8 70 108 45 30 139 114 114 118 123 119 113 111 113 107 100 103 113 108 99 103 103 102 92 89 89 92 81 84 79 77 77 79 80 78 78 74
332 326 34 67 80 41 292 61 75 96 123 101 58 120 52 71 28 111 106 124 121 129 123 115 109 112 106 95 99 113 108 100 101 95 92 98 97 85 84 87 83 83 79 77 80 78 75 72 69
312 233 73 76 127 169 131 112 123 113 120 101 95 52 87 99 68 109 126 134 131 124 113 111 111 108 99 96 98 102 105 105 99 89 86 87 88 87 86 80 88 82 80 79 80 77 73 71 64
10 3 22 81 275 311 116 165 133 97 19 53 113 71 53 50 147 132 120 119 110 114 112 116 115 115 115 111 109 115 110 107 91 91 92 96 93 90 89 89 91 85 82 82 81 78 74 72 63
34 40 61 242 267 204 137 151 154 136 146 157 111 142 71 3 114 131 111 107 114 110 109 116 121 125 117 110 102 123 115 100 103 100 101 102 95 94 92 96 91 90 84 82 83 80 75 67 57
5 112 81 231 278 201 77 109 131 128 138 119 75 97 135 192 147 136 114 115 125 125 112 110 109 141 118 108 104 118 117 115 109 110 110 106 101 97 96 94 99 91 86 84 83 82 76 70 61
133 88 203 232 281 165 147 127 61 137 128 67 125 82 170 166 195 119 127 124 127 128 117 110 94 105 103 106 108 115 117 116 116 115 110 102 94 94 91 94 99 100 97 92 90 84 82 73 54
114 89 235 247 183 128 174 71 104 85 65 52 107 154 176 207 163 131 134 132 131 131 135 130 124 103 96 98 106 116 117 115 114 115 117 117 113 109 104 92 104 108 102 96 92 91 85 69 59
27 64 228 242 297 163 167 93 34 149 106 59 39 103 176 158 120 129 126 132 135 136 152 142 146 130 120 117 115 111 124 127 130 131 137 127 117 112 109 109 108 114 114 112 112 112 87 19 349
114 149 220 116 105 146 121 108 139 105 109 68 63 40 121 124 134 142 150 147 146 155 169 166 148 146 147 140 142 127 126 141 145 146 138 121 129 131 129 133 137 136 142 155 158 123 33 303 331
194 212 277 3 124 109 113 110 153 131 208 187 172 154 153 147 146 150 153 166 159 171 172 181 167 152 149 149 161 156 147 161 165 153 159 143 131 135 142 147 164 163 179 215 227 9 100 97 94
245 234 229 217 195 102 142 135 103 179 224 176 160 157 157 173 161 166 164 169 170 168 176 170 188 156 154 152 159 192 170 174 180 176 150 141 131 156 161 171 197 191 200 207 174 167 152 112 125
243 281 343 168 140 112 115 147 186 235 233 121 137 155 165 173 184 178 169 169 179 181 184 181 188 149 160 153 169 170 215 189 171 168 165 149 169 176 171 196 186 192 167 175 141 139 214 337 232
260 214 134 200 165 87 118 224 154 269 154 130 144 158 170 176 180 181 187 184 190 181 180 182 194 176 162 156 171 180 171 190 192 189 188 175 171 169 167 165 180 182 167 146 146 156 180 279 248
211 219 183 210 183 205 154 288 217 233 137 155 154 160 172 188 194 203 196 185 184 183 175 180 188 190 173 165 167 175 184 170 174 195 209 184 182 178 170 171 184 191 165 151 148 123 72 341 48
129 43 148 220 160 247 151 246 262 236 171 178 176 168 178 187 201 211 216 183 178 169 180 177 185 189 187 168 173 173 184 177 178 174 186 201 190 177 175 180 193 173 156 159 156 153 320 265 65
297 168 183 212 194 164 182 237 255 254 182 194 191 181 184 188 199 214 222 199 169 173 178 184 182 188 194 180 175 177 181 185 190 180 184 192 192 188 176 190 204 166 151 165 168 187 177 131 71
175 173 233 208 219 189 199 243 275 293 180 199 207 194 191 187 200 202 218 209 175 176 179 182 188 190 189 170 175 187 180 186 188 189 184 183 192 189 186 188 180 159 156 184 190 184 218 143 145
160 195 203 232 232 160 223 216 237 262 214 234 233 214 195 200 199 196 201 198 174 181 174 183 181 198 188 183 180 191 196 199 196 198 186 189 192 192 190 189 186 187 179 198 192 190 201 147 145
220 198 221 270 152 170 237 245 234 238 233 207 216 227 198 203 190 196 191 191 183 188 187 183 187 188 200 198 194 180 167 193 201 202 210 193 188 195 192 190 201 203 205 195 196 197 190 105 154
231 236 204 206 203 316 359 278 232 240 221 221 221 216 213 188 197 200 190 193 193 189 194 189 188 188 192 198 182 140 141 165 187 204 208 200 194 193 187 193 190 200 189 212 199 194 187 162 157
205 193 190 148 147 223 183 277 288 236 242 233 229 212 215 211 198 198 194 194 198 203 196 195 189 189 193 189 192 200 202 201 209 209 202 197 190 194 194 199 204 203 200 199 216 209 182 149 169
208 144 123 106 109 17 244 251 264 243 250 241 230 223 216 211 203 193 198 200 203 198 199 194 191 192 192 191 195 199 209 211 201 201 197 201 203 203 200 203 203 209 205 217 201 192 194 183 165
152 94 60 56 88 242 205 197 243 218 237 240 221 229 220 211 212 214 201 203 198 197 197 190 191 197 192 193 199 202 210 208 198 195 201 204 206 209 210 208 205 211 214 210 211 202 187 183 174
143 156 144 208 216 239 221 202 245 234 232 208 217 231 220 215 213 216 200 190 186 187 192 192 195 202 194 197 202 203 207 206 205 205 204 199 202 206 214 204 205 207 206 199 184 188 187 184 186
180 172 153 178 204 221 311 231 252 225 239 224 227 238 197 195 219 224 219 194 189 192 190 187 189 205 195 202 208 208 207 206 210 210 206 209 210 212 209 205 209 208 197 186 180 174 181 191 185
177 197 144 105 39 95 211 276 307 261 231 215 216 201 225 238 215 204 225 204 200 188 192 193 197 208 198 203 205 206 209 211 210 213 204 205 206 204 189 193 206 203 199 188 181 184 185 166 181
183 160 165 122 154 238 254 248 229 219 239 224 223 215 267 188 95 72 55 111 176 211 219 211 211 213 213 211 210 208 209 212 215 205 209 207 205 194 190 194 199 198 195 183 183 183 164 167 167
164 191 187 127 159 174 178 254 218 204 210 199 157 139 132 113 110 92 43 6 354 356 246 236 227 217 210 204 213 220 220 215 213 215 215 215 205 192 199 198 189 190 187 182 185 178 174 179 170
194 189 188 186 211 215 178 271 290 210 155 136 144 139 142 141 145 153 218 332 344 307 285 262 260 250 260 261 244 229 226 216 217 226 228 204 196 196 199 191 189 188 191 186 187 181 189 196 175